,,,PA_Meas_PMT16A,,PR_Meas_QMR101_102,,RH_Meas_QMH101,,SR_Meas_QMS101,,TA_Meas_QMH101,,GenWind,,GenWind,
date,time,status,PA,status,PR,status,RH,status,SR,status,TA,status,DirAvg,status,SpdAvg,
2009-03-10, 00:00:04,VALID,1012.08,VALID,0,VALID,92.3097,VALID,0,VALID,23.2441,VALID,90,VALID,0.548047,
2009-03-10, 00:01:04,VALID,1012.07,VALID,0,VALID,92.2869,VALID,0,VALID,23.2441,VALID,97,VALID,0.468359,
2009-03-10, 00:02:04,VALID,1012.04,VALID,0,VALID,92.2411,VALID,0.105969,VALID,23.2246,VALID,97,VALID,0.673437,
2009-03-10, 00:03:04,VALID,1012.03,VALID,0,VALID,92.2335,VALID,0,VALID,23.2229,VALID,94,VALID,0.603516,
2009-03-10, 00:04:04,VALID,1012.06,VALID,0,VALID,92.203,VALID,0,VALID,23.2441,VALID,105,VALID,0.324219,
2009-03-10, 00:05:04,VALID,1012.04,VALID,0,VALID,92.2259,VALID,0.105969,VALID,23.2423,VALID,103,VALID,0,
2009-03-10, 00:06:04,VALID,1012.03,VALID,0,VALID,92.2182,VALID,0,VALID,23.2441,VALID,103,VALID,0,
2009-03-10, 00:07:04,VALID,1012.06,VALID,0,VALID,92.2182,VALID,0.105969,VALID,23.2423,VALID,119,VALID,0.277344,
2009-03-10, 00:08:04,VALID,1012.07,VALID,0,VALID,92.264,VALID,0.105969,VALID,23.2618,VALID,119,VALID,0,
2009-03-10, 00:09:04,VALID,1012.06,VALID,0,VALID,92.3631,VALID,0.105969,VALID,23.2813,VALID,119,VALID,0.0203125,
2009-03-10, 00:10:04,VALID,1012.07,VALID,0,VALID,92.3936,VALID,0.105969,VALID,23.2831,VALID,119,VALID,0.0015625,
2009-03-10, 00:11:04,VALID,1012.03,VALID,0,VALID,92.3784,VALID,0.105969,VALID,23.2636,VALID,119,VALID,0,
2009-03-10, 00:12:04,VALID,1012.03,VALID,0,VALID,92.3631,VALID,0,VALID,23.2636,VALID,119,VALID,0,
2009-03-10, 00:13:04,VALID,1012.04,VALID,0,VALID,92.3708,VALID,0,VALID,23.2246,VALID,119,VALID,0,
2009-03-10, 00:14:04,VALID,1012.04,VALID,0,VALID,92.386,VALID,0,VALID,23.2654,VALID,119,VALID,0,
2009-03-10, 00:15:04,VALID,1012.03,VALID,0,VALID,92.4241,VALID,0,VALID,23.2441,VALID,119,VALID,0,
2009-03-10, 00:16:04,VALID,1012.01,VALID,0,VALID,92.4394,VALID,0,VALID,23.2654,VALID,119,VALID,0,
2009-03-10, 00:17:04,VALID,1012,VALID,0,VALID,92.4546,VALID,0,VALID,23.2654,VALID,119,VALID,0,
2009-03-10, 00:18:04,VALID,1011.95,VALID,0,VALID,92.4928,VALID,0,VALID,23.2636,VALID,119,VALID,0,
2009-03-10, 00:19:04,VALID,1011.93,VALID,0,VALID,92.508,VALID,0,VALID,23.2654,VALID,119,VALID,0,
2009-03-10, 00:20:04,VALID,1011.92,VALID,0,VALID,92.4775,VALID,0,VALID,23.2459,VALID,119,VALID,0,
2009-03-10, 00:21:04,VALID,1011.89,VALID,0,VALID,92.508,VALID,0,VALID,23.2459,VALID,119,VALID,0,
2009-03-10, 00:22:04,VALID,1011.87,VALID,0,VALID,92.5004,VALID,0,VALID,23.2459,VALID,119,VALID,0,
2009-03-10, 00:23:04,VALID,1011.85,VALID,0,VALID,92.5614,VALID,0,VALID,23.2459,VALID,119,VALID,0,
2009-03-10, 00:24:04,VALID,1011.8,VALID,0,VALID,92.5766,VALID,0,VALID,23.2459,VALID,119,VALID,0,
2009-03-10, 00:25:04,VALID,1011.8,VALID,0,VALID,92.6224,VALID,0,VALID,23.2459,VALID,119,VALID,0,
2009-03-10, 00:26:04,VALID,1011.79,VALID,0,VALID,92.6529,VALID,0,VALID,23.2654,VALID,119,VALID,0,
2009-03-10, 00:27:04,VALID,1011.77,VALID,0,VALID,92.6834,VALID,0,VALID,23.2459,VALID,119,VALID,0,
2009-03-10, 00:28:04,VALID,1011.77,VALID,0,VALID,92.7139,VALID,0,VALID,23.2459,VALID,119,VALID,0,
2009-03-10, 00:29:04,VALID,1011.74,VALID,0,VALID,92.7139,VALID,0,VALID,23.2264,VALID,119,VALID,0,
2009-03-10, 00:30:04,VALID,1011.73,VALID,0,VALID,92.6987,VALID,0,VALID,23.2069,VALID,119,VALID,0,
2009-03-10, 00:31:04,VALID,1011.73,VALID,0,VALID,92.6834,VALID,0,VALID,23.2069,VALID,119,VALID,0,
2009-03-10, 00:32:04,VALID,1011.7,VALID,0,VALID,92.6834,VALID,0,VALID,23.1874,VALID,119,VALID,0,
2009-03-10, 00:33:04,VALID,1011.69,VALID,0,VALID,92.6834,VALID,0,VALID,23.1679,VALID,119,VALID,0,
2009-03-10, 00:34:04,VALID,1011.68,VALID,0,VALID,92.7292,VALID,0,VALID,23.1467,VALID,119,VALID,0,
2009-03-10, 00:35:04,VALID,1011.65,VALID,0,VALID,92.7902,VALID,0,VALID,23.1679,VALID,119,VALID,0,
2009-03-10, 00:36:04,VALID,1011.66,VALID,0,VALID,92.8207,VALID,0,VALID,23.1467,VALID,119,VALID,0,
2009-03-10, 00:37:04,VALID,1011.64,VALID,0,VALID,92.8283,VALID,0,VALID,23.1679,VALID,93,VALID,0.710547,
2009-03-10, 00:38:04,VALID,1011.62,VALID,0,VALID,92.7902,VALID,0,VALID,23.1874,VALID,91,VALID,0.516797,
2009-03-10, 00:39:04,VALID,1011.61,VALID,0,VALID,92.7292,VALID,0,VALID,23.2069,VALID,78,VALID,0.281641,
2009-03-10, 00:40:04,VALID,1011.56,VALID,0,VALID,92.6682,VALID,0,VALID,23.2069,VALID,78,VALID,0.263281,
2009-03-10, 00:41:04,VALID,1011.57,VALID,0,VALID,92.63,VALID,0,VALID,23.1874,VALID,78,VALID,0.00351562,
2009-03-10, 00:42:04,VALID,1011.53,VALID,0,VALID,92.5919,VALID,0,VALID,23.1874,VALID,78,VALID,0.0949219,
2009-03-10, 00:43:04,VALID,1011.51,VALID,0,VALID,92.5614,VALID,0,VALID,23.1857,VALID,78,VALID,0.425391,
2009-03-10, 00:44:04,VALID,1011.48,VALID,0,VALID,92.5461,VALID,0,VALID,23.1857,VALID,65,VALID,0.558594,
2009-03-10, 00:45:04,VALID,1011.46,VALID,0,VALID,92.5309,VALID,0,VALID,23.1662,VALID,66,VALID,0.464844,
2009-03-10, 00:46:04,VALID,1011.44,VALID,0,VALID,92.5233,VALID,0.105969,VALID,23.145,VALID,69,VALID,0.671094,
2009-03-10, 00:47:04,VALID,1011.44,VALID,0,VALID,92.5233,VALID,0,VALID,23.1662,VALID,67,VALID,0.342187,
2009-03-10, 00:48:04,VALID,1011.39,VALID,0,VALID,92.5385,VALID,0,VALID,23.1679,VALID,56,VALID,0.490234,
2009-03-10, 00:49:04,VALID,1011.37,VALID,0,VALID,92.5309,VALID,0,VALID,23.1272,VALID,56,VALID,0.475,
2009-03-10, 00:50:04,VALID,1011.35,VALID,0,VALID,92.5385,VALID,0.105969,VALID,23.106,VALID,57,VALID,0.666797,
2009-03-10, 00:51:04,VALID,1011.35,VALID,0,VALID,92.6071,VALID,0,VALID,23.1077,VALID,61,VALID,0.576172,
2009-03-10, 00:52:04,VALID,1011.31,VALID,0,VALID,92.63,VALID,0.105969,VALID,23.0883,VALID,57,VALID,0.472266,
2009-03-10, 00:53:04,VALID,1011.27,VALID,0,VALID,92.6682,VALID,0,VALID,23.0688,VALID,39,VALID,0.533594,
2009-03-10, 00:54:04,VALID,1011.23,VALID,0,VALID,92.7063,VALID,0,VALID,23.0493,VALID,51,VALID,0.943359,
2009-03-10, 00:55:04,VALID,1011.21,VALID,0,VALID,92.7368,VALID,0.105969,VALID,23.0298,VALID,51,VALID,0.696094,
2009-03-10, 00:56:04,VALID,1011.17,VALID,0,VALID,92.7825,VALID,0,VALID,23.0103,VALID,47,VALID,0.550391,
2009-03-10, 00:57:04,VALID,1011.17,VALID,0,VALID,92.8283,VALID,0,VALID,22.9909,VALID,48,VALID,0.561328,
2009-03-10, 00:58:04,VALID,1011.14,VALID,0,VALID,92.8588,VALID,0,VALID,22.9926,VALID,46,VALID,0.314063,
2009-03-10, 00:59:04,VALID,1011.12,VALID,0,VALID,92.8969,VALID,0,VALID,22.9536,VALID,56,VALID,0.416797,
2009-03-10, 01:00:04,VALID,1011.08,VALID,0,VALID,92.9351,VALID,0,VALID,22.9536,VALID,47,VALID,0.39375,
2009-03-10, 01:01:04,VALID,1011.06,VALID,0,VALID,93.0113,VALID,0,VALID,22.9342,VALID,60,VALID,0.328906,
2009-03-10, 01:02:04,VALID,1011.04,VALID,0,VALID,93.0342,VALID,0,VALID,22.9147,VALID,42,VALID,0.503516,
2009-03-10, 01:03:04,VALID,1011,VALID,0,VALID,93.0952,VALID,0,VALID,22.8952,VALID,56,VALID,0.257422,
2009-03-10, 01:04:04,VALID,1010.99,VALID,0,VALID,93.1486,VALID,0,VALID,22.8545,VALID,56,VALID,0,
2009-03-10, 01:05:04,VALID,1011,VALID,0,VALID,93.1715,VALID,0,VALID,22.835,VALID,53,VALID,0.398047,
2009-03-10, 01:06:04,VALID,1010.97,VALID,0,VALID,93.2248,VALID,0,VALID,22.835,VALID,46,VALID,0.461328,
2009-03-10, 01:07:04,VALID,1010.99,VALID,0,VALID,93.2782,VALID,0,VALID,22.8368,VALID,76,VALID,0.520703,
2009-03-10, 01:08:04,VALID,1010.97,VALID,0,VALID,93.3011,VALID,0,VALID,22.8173,VALID,76,VALID,0.68125,
2009-03-10, 01:09:04,VALID,1010.96,VALID,0,VALID,93.3316,VALID,0,VALID,22.7978,VALID,71,VALID,0.332422,
2009-03-10, 01:10:04,VALID,1010.94,VALID,0,VALID,93.385,VALID,0,VALID,22.7978,VALID,87,VALID,0.391016,
2009-03-10, 01:11:04,VALID,1010.93,VALID,0,VALID,93.4079,VALID,0,VALID,22.7766,VALID,82,VALID,0.232422,
2009-03-10, 01:12:04,VALID,1010.93,VALID,0,VALID,93.446,VALID,0,VALID,22.7571,VALID,72,VALID,0.301172,
2009-03-10, 01:13:04,VALID,1010.94,VALID,0,VALID,93.4917,VALID,0,VALID,22.7783,VALID,96,VALID,0.402734,
2009-03-10, 01:14:04,VALID,1010.94,VALID,0,VALID,93.5146,VALID,0,VALID,22.7783,VALID,76,VALID,0.211328,
2009-03-10, 01:15:04,VALID,1010.95,VALID,0,VALID,93.5375,VALID,0,VALID,22.7588,VALID,91,VALID,0.771875,
2009-03-10, 01:16:04,VALID,1010.96,VALID,0,VALID,93.5756,VALID,0,VALID,22.7394,VALID,84,VALID,0.661328,
2009-03-10, 01:17:04,VALID,1010.95,VALID,0,VALID,93.5985,VALID,0,VALID,22.7588,VALID,86,VALID,0.567578,
2009-03-10, 01:18:04,VALID,1010.96,VALID,0,VALID,93.6214,VALID,0,VALID,22.7394,VALID,88,VALID,0.5,
2009-03-10, 01:19:04,VALID,1010.99,VALID,0,VALID,93.6366,VALID,0,VALID,22.7182,VALID,105,VALID,1.10742,
2009-03-10, 01:20:04,VALID,1010.96,VALID,0,VALID,93.6748,VALID,0,VALID,22.7182,VALID,85,VALID,0.478516,
2009-03-10, 01:21:04,VALID,1010.96,VALID,0,VALID,93.6748,VALID,0,VALID,22.7588,VALID,89,VALID,0.998828,
2009-03-10, 01:22:04,VALID,1010.95,VALID,0,VALID,93.7281,VALID,0,VALID,22.7376,VALID,95,VALID,0.491797,
2009-03-10, 01:23:04,VALID,1010.93,VALID,0,VALID,93.7281,VALID,0,VALID,22.7588,VALID,89,VALID,0.0195313,
2009-03-10, 01:24:04,VALID,1010.93,VALID,0,VALID,93.7358,VALID,0,VALID,22.7588,VALID,98,VALID,0.290625,
2009-03-10, 01:25:04,VALID,1010.91,VALID,0,VALID,93.7358,VALID,0,VALID,22.7588,VALID,112,VALID,1.03125,
2009-03-10, 01:26:04,VALID,1010.9,VALID,0,VALID,93.7586,VALID,0,VALID,22.7783,VALID,141,VALID,0.755078,
2009-03-10, 01:27:04,VALID,1010.9,VALID,0,VALID,93.7815,VALID,0,VALID,22.7783,VALID,118,VALID,0.282422,
2009-03-10, 01:28:04,VALID,1010.89,VALID,0,VALID,93.7739,VALID,0.105969,VALID,22.7766,VALID,118,VALID,0.259375,
2009-03-10, 01:29:04,VALID,1010.85,VALID,0,VALID,93.7815,VALID,0,VALID,22.7766,VALID,83,VALID,0.588672,
2009-03-10, 01:30:04,VALID,1010.84,VALID,0,VALID,93.7739,VALID,0,VALID,22.7571,VALID,57,VALID,0.695703,
2009-03-10, 01:31:04,VALID,1010.83,VALID,0,VALID,93.7739,VALID,0.105969,VALID,22.7571,VALID,65,VALID,0.45625,
2009-03-10, 01:32:04,VALID,1010.82,VALID,0,VALID,93.7586,VALID,0.105969,VALID,22.7359,VALID,65,VALID,0.748828,
2009-03-10, 01:33:04,VALID,1010.82,VALID,0,VALID,93.751,VALID,0,VALID,22.7376,VALID,91,VALID,0.239844,
2009-03-10, 01:34:04,VALID,1010.79,VALID,0,VALID,93.7663,VALID,0.105969,VALID,22.7376,VALID,62,VALID,0.599219,
2009-03-10, 01:35:04,VALID,1010.77,VALID,0,VALID,93.7663,VALID,0.105969,VALID,22.7182,VALID,61,VALID,0.0597656,
2009-03-10, 01:36:04,VALID,1010.76,VALID,0,VALID,93.7891,VALID,0.105969,VALID,22.7182,VALID,61,VALID,0.15625,
2009-03-10, 01:37:04,VALID,1010.77,VALID,0,VALID,93.7586,VALID,0.105969,VALID,22.697,VALID,60,VALID,0.291406,
2009-03-10, 01:38:04,VALID,1010.75,VALID,0,VALID,93.7815,VALID,0.105969,VALID,22.6987,VALID,60,VALID,0,
2009-03-10, 01:39:04,VALID,1010.74,VALID,0,VALID,93.7663,VALID,0.105969,VALID,22.6987,VALID,60,VALID,0,
2009-03-10, 01:40:04,VALID,1010.73,VALID,0,VALID,93.7586,VALID,0.105969,VALID,22.6987,VALID,60,VALID,0,
2009-03-10, 01:41:04,VALID,1010.73,VALID,0,VALID,93.7663,VALID,0.105969,VALID,22.6792,VALID,60,VALID,0,
2009-03-10, 01:42:04,VALID,1010.73,VALID,0,VALID,93.7739,VALID,0.105969,VALID,22.658,VALID,60,VALID,0,
2009-03-10, 01:43:04,VALID,1010.72,VALID,0,VALID,93.7815,VALID,0,VALID,22.6614,VALID,60,VALID,0,
2009-03-10, 01:44:04,VALID,1010.73,VALID,0,VALID,93.7739,VALID,0,VALID,22.6809,VALID,60,VALID,0,
2009-03-10, 01:45:04,VALID,1010.72,VALID,0,VALID,93.7891,VALID,0,VALID,22.6614,VALID,60,VALID,0.0886719,
2009-03-10, 01:46:04,VALID,1010.74,VALID,0,VALID,93.7891,VALID,0,VALID,22.6614,VALID,60,VALID,0,
2009-03-10, 01:47:04,VALID,1010.76,VALID,0,VALID,93.7815,VALID,0,VALID,22.6614,VALID,60,VALID,0,
2009-03-10, 01:48:04,VALID,1010.73,VALID,0,VALID,93.8044,VALID,0,VALID,22.6614,VALID,60,VALID,0,
2009-03-10, 01:49:04,VALID,1010.67,VALID,0,VALID,93.8196,VALID,0,VALID,22.6614,VALID,60,VALID,0,
2009-03-10, 01:50:04,VALID,1010.66,VALID,0,VALID,93.812,VALID,0,VALID,22.642,VALID,60,VALID,0,
2009-03-10, 01:51:04,VALID,1010.64,VALID,0,VALID,93.812,VALID,0,VALID,22.6225,VALID,60,VALID,0,
2009-03-10, 01:52:04,VALID,1010.64,VALID,0,VALID,93.8273,VALID,0,VALID,22.6225,VALID,60,VALID,0,
2009-03-10, 01:53:04,VALID,1010.63,VALID,0,VALID,93.8196,VALID,0,VALID,22.603,VALID,60,VALID,0,
2009-03-10, 01:54:04,VALID,1010.6,VALID,0,VALID,93.812,VALID,0,VALID,22.603,VALID,60,VALID,0,
2009-03-10, 01:55:04,VALID,1010.59,VALID,0,VALID,93.812,VALID,0,VALID,22.5835,VALID,60,VALID,0,
2009-03-10, 01:56:05,VALID,1010.58,VALID,0,VALID,93.8273,VALID,0,VALID,22.5835,VALID,60,VALID,0,
2009-03-10, 01:57:05,VALID,1010.58,VALID,0,VALID,93.8349,VALID,0,VALID,22.5835,VALID,60,VALID,0,
2009-03-10, 01:58:05,VALID,1010.6,VALID,0,VALID,93.8349,VALID,0,VALID,22.5623,VALID,60,VALID,0,
2009-03-10, 01:59:05,VALID,1010.61,VALID,0,VALID,93.8578,VALID,0,VALID,22.5818,VALID,60,VALID,0,
2009-03-10, 02:00:05,VALID,1010.59,VALID,0,VALID,93.8502,VALID,0.105969,VALID,22.5623,VALID,61,VALID,0.149609,
2009-03-10, 02:01:05,VALID,1010.6,VALID,0,VALID,93.8883,VALID,0,VALID,22.5818,VALID,61,VALID,0.191797,
2009-03-10, 02:02:05,VALID,1010.61,VALID,0,VALID,93.8959,VALID,0,VALID,22.5818,VALID,107,VALID,0.492969,
2009-03-10, 02:03:05,VALID,1010.6,VALID,0,VALID,93.8959,VALID,0.105969,VALID,22.5818,VALID,128,VALID,0.510938,
2009-03-10, 02:04:05,VALID,1010.62,VALID,0,VALID,93.9264,VALID,0.105969,VALID,22.5818,VALID,128,VALID,0.324219,
2009-03-10, 02:05:05,VALID,1010.56,VALID,0,VALID,93.9188,VALID,0.105969,VALID,22.5818,VALID,128,VALID,0.355469,
2009-03-10, 02:06:05,VALID,1010.56,VALID,0,VALID,93.9112,VALID,0,VALID,22.5818,VALID,128,VALID,0,
2009-03-10, 02:07:05,VALID,1010.58,VALID,0,VALID,93.9493,VALID,0.105969,VALID,22.6013,VALID,128,VALID,0,
2009-03-10, 02:08:05,VALID,1010.58,VALID,0,VALID,93.9417,VALID,0,VALID,22.6013,VALID,128,VALID,0,
2009-03-10, 02:09:05,VALID,1010.57,VALID,0,VALID,93.9569,VALID,0,VALID,22.5818,VALID,128,VALID,0,
2009-03-10, 02:10:05,VALID,1010.57,VALID,0,VALID,93.9493,VALID,0.105969,VALID,22.5818,VALID,128,VALID,0,
2009-03-10, 02:11:05,VALID,1010.57,VALID,0,VALID,93.9798,VALID,0.105969,VALID,22.5818,VALID,128,VALID,0,
2009-03-10, 02:12:05,VALID,1010.55,VALID,0,VALID,93.9798,VALID,0.105969,VALID,22.5818,VALID,128,VALID,0,
2009-03-10, 02:13:05,VALID,1010.53,VALID,0,VALID,93.9722,VALID,0,VALID,22.603,VALID,128,VALID,0,
2009-03-10, 02:14:05,VALID,1010.57,VALID,0,VALID,93.9645,VALID,0,VALID,22.5835,VALID,128,VALID,0.285156,
2009-03-10, 02:15:05,VALID,1010.58,VALID,0,VALID,93.9798,VALID,0,VALID,22.5623,VALID,128,VALID,0.286328,
2009-03-10, 02:16:05,VALID,1010.56,VALID,0,VALID,93.9874,VALID,0,VALID,22.5818,VALID,145,VALID,0.330469,
2009-03-10, 02:17:05,VALID,1010.58,VALID,0,VALID,94.0103,VALID,0,VALID,22.6225,VALID,143,VALID,0.162109,
2009-03-10, 02:18:05,VALID,1010.57,VALID,0,VALID,93.9798,VALID,0,VALID,22.6225,VALID,143,VALID,0,
2009-03-10, 02:19:05,VALID,1010.59,VALID,0,VALID,94.0027,VALID,0,VALID,22.6225,VALID,143,VALID,0.00078125,
2009-03-10, 02:20:05,VALID,1010.57,VALID,0,VALID,94.0103,VALID,0,VALID,22.6225,VALID,144,VALID,0,
2009-03-10, 02:21:05,VALID,1010.55,VALID,0,VALID,94.0103,VALID,0,VALID,22.6225,VALID,144,VALID,0,
2009-03-10, 02:22:05,VALID,1010.57,VALID,0,VALID,94.0027,VALID,0,VALID,22.642,VALID,144,VALID,0,
2009-03-10, 02:23:05,VALID,1010.53,VALID,0,VALID,94.0255,VALID,0,VALID,22.6208,VALID,143,VALID,0,
2009-03-10, 02:24:05,VALID,1010.56,VALID,0,VALID,94.0103,VALID,0,VALID,22.6208,VALID,143,VALID,0,
2009-03-10, 02:25:05,VALID,1010.54,VALID,0,VALID,94.0332,VALID,0,VALID,22.642,VALID,143,VALID,0,
2009-03-10, 02:26:05,VALID,1010.52,VALID,0,VALID,94.0027,VALID,0,VALID,22.6402,VALID,143,VALID,0,
2009-03-10, 02:27:05,VALID,1010.53,VALID,0,VALID,94.0255,VALID,0,VALID,22.6614,VALID,137,VALID,0,
2009-03-10, 02:28:05,VALID,1010.5,VALID,0,VALID,94.0255,VALID,0,VALID,22.6809,VALID,66,VALID,0,
2009-03-10, 02:29:05,VALID,1010.48,VALID,0,VALID,94.0027,VALID,0,VALID,22.6614,VALID,57,VALID,0.0867188,
2009-03-10, 02:30:05,VALID,1010.47,VALID,0,VALID,93.995,VALID,0,VALID,22.6402,VALID,52,VALID,0,
2009-03-10, 02:31:05,VALID,1010.46,VALID,0,VALID,93.9722,VALID,0,VALID,22.6614,VALID,36,VALID,0.445313,
2009-03-10, 02:32:05,VALID,1010.45,VALID,0,VALID,93.9798,VALID,0,VALID,22.6614,VALID,36,VALID,0.430859,
2009-03-10, 02:33:05,VALID,1010.42,VALID,0,VALID,93.9798,VALID,0,VALID,22.642,VALID,36,VALID,0.259375,
2009-03-10, 02:34:05,VALID,1010.42,VALID,0,VALID,93.9645,VALID,0,VALID,22.642,VALID,53,VALID,0.630469,
2009-03-10, 02:35:05,VALID,1010.43,VALID,0,VALID,93.9569,VALID,0,VALID,22.6225,VALID,34,VALID,0.316406,
2009-03-10, 02:36:05,VALID,1010.4,VALID,0,VALID,93.9417,VALID,0,VALID,22.6225,VALID,23,VALID,0.2125,
2009-03-10, 02:37:05,VALID,1010.42,VALID,0,VALID,93.934,VALID,0,VALID,22.6225,VALID,24,VALID,0.254687,
2009-03-10, 02:38:05,VALID,1010.41,VALID,0,VALID,93.9264,VALID,0,VALID,22.603,VALID,24,VALID,0.155859,
2009-03-10, 02:39:05,VALID,1010.42,VALID,0,VALID,93.9188,VALID,0,VALID,22.6225,VALID,24,VALID,0.201172,
2009-03-10, 02:40:05,VALID,1010.43,VALID,0,VALID,93.934,VALID,0,VALID,22.603,VALID,24,VALID,0.348828,
2009-03-10, 02:41:05,VALID,1010.43,VALID,0,VALID,93.9112,VALID,0,VALID,22.5835,VALID,24,VALID,0.254297,
2009-03-10, 02:42:05,VALID,1010.41,VALID,0,VALID,93.8959,VALID,0,VALID,22.5835,VALID,46,VALID,0.182422,
2009-03-10, 02:43:05,VALID,1010.42,VALID,0,VALID,93.8807,VALID,0,VALID,22.5835,VALID,74,VALID,0.715234,
2009-03-10, 02:44:05,VALID,1010.41,VALID,0,VALID,93.8807,VALID,0,VALID,22.564,VALID,73,VALID,0.242188,
2009-03-10, 02:45:05,VALID,1010.41,VALID,0,VALID,93.8807,VALID,0,VALID,22.564,VALID,73,VALID,0.255469,
2009-03-10, 02:46:05,VALID,1010.41,VALID,0,VALID,93.8959,VALID,0,VALID,22.564,VALID,73,VALID,0.2375,
2009-03-10, 02:47:05,VALID,1010.41,VALID,0,VALID,93.8959,VALID,0,VALID,22.5429,VALID,76,VALID,0.246094,
2009-03-10, 02:48:05,VALID,1010.41,VALID,0,VALID,93.9112,VALID,0,VALID,22.5429,VALID,86,VALID,0.234766,
2009-03-10, 02:49:05,VALID,1010.41,VALID,0,VALID,93.9188,VALID,0,VALID,22.5623,VALID,91,VALID,0.491797,
2009-03-10, 02:50:05,VALID,1010.41,VALID,0,VALID,93.9035,VALID,0,VALID,22.564,VALID,89,VALID,0.0289063,
2009-03-10, 02:51:05,VALID,1010.44,VALID,0,VALID,93.9112,VALID,0,VALID,22.5835,VALID,89,VALID,0,
2009-03-10, 02:52:05,VALID,1010.44,VALID,0,VALID,93.9035,VALID,0,VALID,22.564,VALID,73,VALID,0,
2009-03-10, 02:53:05,VALID,1010.45,VALID,0,VALID,93.8883,VALID,0,VALID,22.5835,VALID,86,VALID,0.846094,
2009-03-10, 02:54:05,VALID,1010.42,VALID,0,VALID,93.8807,VALID,0,VALID,22.5623,VALID,78,VALID,0.101563,
2009-03-10, 02:55:05,VALID,1010.43,VALID,0,VALID,93.8502,VALID,0,VALID,22.603,VALID,77,VALID,0.473437,
2009-03-10, 02:56:05,VALID,1010.41,VALID,0,VALID,93.8425,VALID,0,VALID,22.603,VALID,77,VALID,0.879687,
2009-03-10, 02:57:05,VALID,1010.4,VALID,0,VALID,93.7968,VALID,0,VALID,22.6225,VALID,79,VALID,0.942969,
2009-03-10, 02:58:05,VALID,1010.38,VALID,0,VALID,93.7968,VALID,0,VALID,22.603,VALID,70,VALID,0.7875,
2009-03-10, 02:59:05,VALID,1010.37,VALID,0,VALID,93.7434,VALID,0,VALID,22.6208,VALID,82,VALID,0.381641,
2009-03-10, 03:00:05,VALID,1010.36,VALID,0,VALID,93.7281,VALID,0,VALID,22.642,VALID,74,VALID,0.798437,
2009-03-10, 03:01:05,VALID,1010.33,VALID,0,VALID,93.69,VALID,0,VALID,22.6225,VALID,84,VALID,0.857813,
2009-03-10, 03:02:05,VALID,1010.32,VALID,0,VALID,93.6366,VALID,0,VALID,22.642,VALID,100,VALID,0.599609,
2009-03-10, 03:03:05,VALID,1010.32,VALID,0,VALID,93.5909,VALID,0,VALID,22.6208,VALID,90,VALID,0.797656,
2009-03-10, 03:04:05,VALID,1010.33,VALID,0,VALID,93.5451,VALID,0,VALID,22.6208,VALID,104,VALID,0.760156,
2009-03-10, 03:05:05,VALID,1010.31,VALID,0,VALID,93.507,VALID,0,VALID,22.642,VALID,83,VALID,1.14883,
2009-03-10, 03:06:05,VALID,1010.28,VALID,0,VALID,93.4917,VALID,0,VALID,22.6208,VALID,76,VALID,0.783594,
2009-03-10, 03:07:05,VALID,1010.26,VALID,0,VALID,93.4384,VALID,0,VALID,22.642,VALID,79,VALID,1.08203,
2009-03-10, 03:08:05,VALID,1010.27,VALID,0,VALID,93.4155,VALID,0,VALID,22.6225,VALID,76,VALID,1.16445,
2009-03-10, 03:09:05,VALID,1010.27,VALID,0,VALID,93.385,VALID,0,VALID,22.6208,VALID,85,VALID,1.17695,
2009-03-10, 03:10:05,VALID,1010.28,VALID,0,VALID,93.3773,VALID,0,VALID,22.6013,VALID,80,VALID,0.613281,
2009-03-10, 03:11:05,VALID,1010.25,VALID,0,VALID,93.3621,VALID,0,VALID,22.6225,VALID,87,VALID,1.10391,
2009-03-10, 03:12:05,VALID,1010.24,VALID,0,VALID,93.3392,VALID,0,VALID,22.642,VALID,81,VALID,1.24961,
2009-03-10, 03:13:05,VALID,1010.24,VALID,0,VALID,93.324,VALID,0,VALID,22.642,VALID,85,VALID,0.753906,
2009-03-10, 03:14:05,VALID,1010.25,VALID,0,VALID,93.3011,VALID,0,VALID,22.642,VALID,79,VALID,0.674609,
2009-03-10, 03:15:05,VALID,1010.21,VALID,0,VALID,93.2858,VALID,0,VALID,22.642,VALID,83,VALID,0.31875,
2009-03-10, 03:16:05,VALID,1010.23,VALID,0,VALID,93.2858,VALID,0,VALID,22.6013,VALID,86,VALID,0.291797,
2009-03-10, 03:17:05,VALID,1010.22,VALID,0,VALID,93.2706,VALID,0,VALID,22.6225,VALID,92,VALID,0.585938,
2009-03-10, 03:18:05,VALID,1010.18,VALID,0,VALID,93.2553,VALID,0,VALID,22.6225,VALID,91,VALID,0.504687,
2009-03-10, 03:19:05,VALID,1010.18,VALID,0,VALID,93.263,VALID,0,VALID,22.6013,VALID,99,VALID,0.680859,
2009-03-10, 03:20:05,VALID,1010.16,VALID,0,VALID,93.263,VALID,0,VALID,22.6225,VALID,70,VALID,0.455859,
2009-03-10, 03:21:05,VALID,1010.13,VALID,0,VALID,93.2553,VALID,0.105969,VALID,22.6208,VALID,72,VALID,0.368359,
2009-03-10, 03:22:05,VALID,1010.13,VALID,0,VALID,93.2477,VALID,0,VALID,22.6225,VALID,84,VALID,0.554297,
2009-03-10, 03:23:05,VALID,1010.09,VALID,0,VALID,93.2477,VALID,0,VALID,22.6013,VALID,91,VALID,0.707422,
2009-03-10, 03:24:05,VALID,1010.09,VALID,0,VALID,93.2248,VALID,0,VALID,22.642,VALID,82,VALID,0.928125,
2009-03-10, 03:25:05,VALID,1010.1,VALID,0,VALID,93.2325,VALID,0.105969,VALID,22.642,VALID,65,VALID,0.665625,
2009-03-10, 03:26:05,VALID,1010.09,VALID,0,VALID,93.2248,VALID,0,VALID,22.642,VALID,62,VALID,0.1375,
2009-03-10, 03:27:05,VALID,1010.09,VALID,0,VALID,93.2248,VALID,0,VALID,22.6614,VALID,81,VALID,0.276563,
2009-03-10, 03:28:05,VALID,1010.07,VALID,0,VALID,93.2172,VALID,0,VALID,22.6208,VALID,90,VALID,0,
2009-03-10, 03:29:05,VALID,1010.08,VALID,0,VALID,93.2248,VALID,0,VALID,22.642,VALID,95,VALID,0,
2009-03-10, 03:30:05,VALID,1010.05,VALID,0,VALID,93.202,VALID,0,VALID,22.6225,VALID,107,VALID,0.989453,
2009-03-10, 03:31:05,VALID,1010.05,VALID,0,VALID,93.2096,VALID,0,VALID,22.6208,VALID,93,VALID,1.06914,
2009-03-10, 03:32:05,VALID,1010.04,VALID,0,VALID,93.1867,VALID,0,VALID,22.6614,VALID,80,VALID,0.835156,
2009-03-10, 03:33:05,VALID,1010.02,VALID,0,VALID,93.1943,VALID,0.105969,VALID,22.642,VALID,103,VALID,1.23633,
2009-03-10, 03:34:05,VALID,1010.02,VALID,0,VALID,93.1791,VALID,0,VALID,22.6208,VALID,88,VALID,1.18633,
2009-03-10, 03:35:05,VALID,1010.01,VALID,0,VALID,93.1562,VALID,0,VALID,22.642,VALID,82,VALID,1.23828,
2009-03-10, 03:36:05,VALID,1010.02,VALID,0,VALID,93.1715,VALID,0,VALID,22.6208,VALID,89,VALID,0.769141,
2009-03-10, 03:37:05,VALID,1009.99,VALID,0,VALID,93.1638,VALID,0,VALID,22.6013,VALID,69,VALID,1.11719,
2009-03-10, 03:38:05,VALID,1010.03,VALID,0,VALID,93.1562,VALID,0,VALID,22.6225,VALID,83,VALID,0.921484,
2009-03-10, 03:39:05,VALID,1010.02,VALID,0,VALID,93.1715,VALID,0,VALID,22.6225,VALID,66,VALID,0.716797,
2009-03-10, 03:40:05,VALID,1010.04,VALID,0,VALID,93.1715,VALID,0,VALID,22.6225,VALID,78,VALID,0.910547,
2009-03-10, 03:41:05,VALID,1010.03,VALID,0,VALID,93.1562,VALID,0,VALID,22.6225,VALID,63,VALID,0.819141,
2009-03-10, 03:42:05,VALID,1010.02,VALID,0,VALID,93.1715,VALID,0,VALID,22.6225,VALID,55,VALID,0.949219,
2009-03-10, 03:43:05,VALID,1010.01,VALID,0,VALID,93.202,VALID,0,VALID,22.603,VALID,76,VALID,0.929297,
2009-03-10, 03:44:05,VALID,1010.01,VALID,0,VALID,93.1867,VALID,0,VALID,22.5835,VALID,77,VALID,0.636719,
2009-03-10, 03:45:05,VALID,1010.01,VALID,0,VALID,93.2096,VALID,0,VALID,22.603,VALID,65,VALID,0.583984,
2009-03-10, 03:46:05,VALID,1010.01,VALID,0,VALID,93.2172,VALID,0,VALID,22.564,VALID,70,VALID,1.04219,
2009-03-10, 03:47:05,VALID,1010.01,VALID,0,VALID,93.2553,VALID,0,VALID,22.5623,VALID,63,VALID,0.691406,
2009-03-10, 03:48:05,VALID,1010,VALID,0,VALID,93.2782,VALID,0,VALID,22.564,VALID,62,VALID,1.06484,